|
NORAD ID: 31871 Int'l Code: 1999-057PW
Perigee: 725.1 km
Apogee: 743.6 km
Inclination: 98.2 °
Period: 99.3 minutes
Semi major axis: 7105 km
Launch date: October 14, 1999
Source: China/Brazil (CHBZ)
Note: This is SATELLITE DEBRIS
Two Line Element Set (TLE):
1 31871U 99057PW 13140.79824980 .00010389 00000-0 27145-2 0 4746
2 31871 098.2249 115.3826 0013043 000.6322 124.4812 14.49522077315738
Source:
NASA's NSSDC Master Catalog entry for CBERS 1 DEB
|